Hourly Data Report for August 10, 2013

All times are specified in Local Standard Time (LST). Add 1 hour to adjust for Daylight Saving Time where and when it is observed.

VICTORIA INTL A
BRITISH COLUMBIA

48°38'50.000" N
123°25'33.000" W
19.50 m
1018621
71799
YYJ

Download Data

Hourly Data (August 2013)
Hourly Data Report for August 10, 2013
Temp Definition
°C
Dew Point Temp Definition
°C
Rel Hum Definition
%
Wind Dir Definition
10's deg

Wind Spd Definition
km/h
Visibility Definition
km
Stn Press Definition
kPa
Hmdx Definition


Wind Chill Definition


Weather Definition


TIME
00:00 Legend Double Dagger 13.7 10.9 83 12 11 48.3 100.91     LegendNANA
01:00 Legend Double Dagger 13.6 11.3 86 13 13 48.3 101.02     Mainly Clear
02:00 Legend Double Dagger 11.6 10.8 95 3 10 48.3 101.14     LegendNANA
03:00 Legend Double Dagger 11.7 10.8 94 23 2 48.3 101.15     LegendNANA
04:00 Legend Double Dagger 15.5 12.5 82 27 28 48.3 100.99     Cloudy
05:00 Legend Double Dagger 13.1 11.8 92 8 3 48.3 101.14     Rain
06:00 Legend Double Dagger 14.4 12.8 90 11 13 48.3 101.27     LegendNANA
07:00 Legend Double Dagger 14.2 12.3 88 29 11 48.3 101.28     Mostly Cloudy
08:00 Legend Double Dagger 17.0 13.4 79 28 14 48.3 101.27     LegendNANA
09:00 Legend Double Dagger 14.9 11.9 82 13 18 48.3 101.30     LegendNANA
10:00 Legend Double Dagger 14.0 11.5 85 13 12 48.3 101.32     Cloudy
11:00 Legend Double Dagger 16.3 13.6 84 13 9 48.3 101.32     Rain
12:00 Legend Double Dagger 15.1 12.3 83 12 20 48.3 101.32     LegendNANA
13:00 Legend Double Dagger 17.9 12.6 71 11 14 48.3 101.33     Mainly Clear
14:00 Legend Double Dagger 18.6 12.7 68 10 11 48.3 101.30     LegendNANA
15:00 Legend Double Dagger 18.4 12.2 67 12 15 48.3 101.25     LegendNANA
16:00 Legend Double Dagger 19.7 13.0 65 12 10 48.3 101.19     Mainly Clear
17:00 Legend Double Dagger 19.4 12.7 65 14 9 48.3 101.20     LegendNANA
18:00 Legend Double Dagger 19.0 12.6 66 8 12 48.3 101.15     LegendNANA
19:00 Legend Double Dagger 17.5 12.3 71 5 6 48.3 101.17     Mostly Cloudy
20:00 Legend Double Dagger 15.6 11.0 74 14 10 48.3 101.24     LegendNANA
21:00 Legend Double Dagger 15.2 11.0 76 12 6 48.3 101.29     LegendNANA
22:00 Legend Double Dagger 15.0 10.9 76 31 3 48.3 101.25     Mostly Cloudy
23:00 Legend Double Dagger 13.3 10.9 85 8 9 48.3 101.30     LegendNANA

Notes on Data Quality.

Legend

  • E = Estimated
  • M = Missing
  • NA = Not Available
  • ‡ = Partner data that is not subject to review by the National Climate Archives
Date modified: